FW9819 Weather Reports


time (UTC)temp
F
wind
direction
speed
knots
gust
knots
rain 1hr
in
rain 24hr
in
rain mn
in
humidity
%
barometer
mb
20260506001525 81 282 0.9 3.5 0.00 0.00 0.00 45 1012.9
20260506000011 81 127 0.9 4.3 0.00 0.00 0.00 44 1012.9
20260505234625 81 291 0.9 5.2 0.00 0.00 0.00 45 1013.0
20260505233038 81 309 0.9 7.0 0.00 0.00 0.00 44 1013.1
20260505231517 82 314 1.7 5.2 0.00 0.00 0.00 44 1013.2
20260505230006 82 123 0.9 4.3 0.00 0.00 0.00 43 1013.2
20260505224543 81 355 0.9 3.5 0.00 0.00 0.00 44 1013.3
20260505223030 81 171 0.9 4.3 0.00 0.00 0.00 44 1013.5
20260505221507 80 288 1.7 4.3 0.00 0.00 0.00 43 1013.5
20260505214538 80 195 0.9 3.5 0.00 0.00 0.00 44 1013.7
20260505213012 79 321 0.0 7.8 0.00 0.00 0.00 47 1013.8
20260505211506 78 15 0.9 7.0 0.00 0.00 0.00 49 1013.9
20260505210037 78 234 0.9 7.0 0.00 0.00 0.00 47 1014.0
20260505204506 78 265 0.9 4.3 0.00 0.00 0.00 48 1014.1
20260505203037 77 189 0.0 6.1 0.00 0.00 0.00 49 1014.1
20260505201525 77 172 1.7 4.3 0.00 0.00 0.00 47 1014.2
20260505194527 76 284 0.9 2.6 0.00 0.00 0.00 50 1014.5
20260505193056 75 157 0.9 4.3 0.00 0.00 0.00 52 1014.6
20260505191541 75 171 0.9 7.8 0.00 0.00 0.00 52 1014.7
20260505190012 74 135 0.9 3.5 0.00 0.00 0.00 53 1014.7
20260505184558 74 171 0.9 5.2 0.00 0.00 0.00 54 1014.7
20260505183030 73 156 0.9 4.3 0.00 0.00 0.00 56 1014.8
20260505181511 72 252 0.9 4.3 0.00 0.00 0.00 58 1014.9
20260505180053 71 321 0.9 3.5 0.00 0.00 0.00 60 1015.0
20260505174537 70 185 1.7 5.2 0.00 0.00 0.00 59 1015.0
20260505173006 70 243 0.9 2.6 0.00 0.00 0.00 59 1015.0
20260505171544 69 196 0.9 3.5 0.00 0.00 0.00 61 1015.0
20260505170028 68 178 0.9 3.5 0.00 0.00 0.00 63 1015.0
20260505164558 67 145 0.9 5.2 0.00 0.00 0.00 64 1015.0
20260505163040 66 309 0.9 2.6 0.00 0.00 0.00 66 1015.0
20260505161512 65 275 0.9 7.0 0.00 0.00 0.00 68 1015.1
20260505153007 60 176 0.0 1.7 0.00 0.00 0.00 77 1014.9
20260505151548 58 176 0.0 1.7 0.00 0.00 0.00 81 1014.9
20260505124519 54 176 0.0 1.7 0.00 0.00 0.00 85 1013.6
20260505123114 54 177 0.0 1.7 0.00 0.00 0.00 85 1013.4
20260505123000 54 177 0.0 1.7 0.00 0.00 0.00 84 1013.4
20260505121541 54 165 0.0 1.7 0.00 0.00 0.00 84 1013.3
20260505120028 55 165 0.0 1.7 0.00 0.00 0.00 83 1013.2
20260505114613 55 165 0.0 1.7 0.00 0.00 0.00 83 1013.1
20260505113040 56 165 0.0 1.7 0.00 0.00 0.00 83 1013.1
20260505111533 56 165 0.0 1.7 0.00 0.00 0.00 82 1013.0
20260505101602 58 134 0.0 3.5 0.00 0.00 0.00 81 1012.5
20260505101503 58 134 0.0 3.5 0.00 0.00 0.00 81 1012.4
20260505100043 58 144 0.0 2.6 0.00 0.00 0.00 81 1012.4
20260505094522 59 325 0.0 1.7 0.00 0.00 0.00 79 1012.2
20260505093100 59 216 0.0 1.7 0.00 0.00 0.00 79 1012.3
20260505093009 59 216 0.0 1.7 0.00 0.00 0.00 79 1012.2
20260505091545 60 207 0.0 1.7 0.00 0.00 0.00 79 1012.2
20260505090034 60 275 0.0 3.5 0.00 0.00 0.00 79 1012.1
20260505084518 59 336 0.0 3.5 0.00 0.00 0.00 80 1012.0
20260505083108 59 130 0.9 1.7 0.00 0.00 0.00 79 1012.0
20260505081537 60 130 0.0 1.7 0.00 0.00 0.00 79 1011.9
20260505080116 60 130 0.0 1.7 0.00 0.00 0.00 78 1011.9
20260505074524 60 56 0.0 1.7 0.00 0.00 0.00 77 1011.9
20260505073006 61 56 0.0 1.7 0.00 0.00 0.00 75 1011.9
20260505071544 61 56 0.0 1.7 0.00 0.00 0.00 75 1011.8
20260505070028 62 55 0.0 1.7 0.00 0.00 0.00 74 1011.6
20260505064604 62 55 0.9 1.7 0.00 0.00 0.00 73 1011.5
20260505064501 62 55 0.0 1.7 0.00 0.00 0.00 73 1011.5
20260505063049 63 43 0.0 1.7 0.00 0.00 0.00 72 1011.4
20260505061537 64 43 0.0 1.7 0.00 0.00 0.00 70 1011.5
20260505060015 64 43 0.0 3.5 0.00 0.00 0.00 69 1011.3
20260505054602 65 188 0.0 1.7 0.00 0.00 0.00 68 1011.3
20260505053043 65 62 0.0 2.6 0.00 0.00 0.00 68 1011.2
20260505051527 65 63 0.0 1.7 0.00 0.00 0.00 66 1011.1
20260505041534 68 150 0.0 1.7 0.00 0.00 0.00 62 1010.5
20260505040006 68 150 0.0 1.7 0.00 0.00 0.00 60 1010.3
20260505034551 69 192 0.9 3.5 0.00 0.00 0.00 59 1010.0
20260505033036 70 348 0.9 4.3 0.00 0.00 0.00 58 1009.8
20260505031515 70 311 0.9 4.3 0.00 0.00 0.00 57 1009.6
20260505030057 71 342 0.0 2.6 0.00 0.00 0.00 57 1009.5
20260505024546 72 22 0.9 3.5 0.00 0.00 0.00 56 1009.2
20260505023025 73 278 0.9 2.6 0.00 0.00 0.00 54 1009.0
20260505021600 74 197 0.9 7.8 0.00 0.00 0.00 52 1009.0
20260505021502 74 257 1.7 7.8 0.00 0.00 0.00 53 1009.0
20260505020041 75 346 1.7 7.8 0.00 0.00 0.00 51 1008.8
20260505014521 76 165 3.5 10.4 0.00 0.00 0.00 49 1008.7
20260505013019 77 196 1.7 6.1 0.00 0.00 0.00 48 1008.8
20260505011551 79 137 2.6 7.8 0.00 0.00 0.00 46 1008.8
20260505010041 80 10 1.7 6.1 0.00 0.00 0.00 45 1008.6
20260505004524 81 73 1.7 7.0 0.00 0.00 0.00 43 1008.7
20260505003057 83 218 0.9 7.8 0.00 0.00 0.00 42 1008.7